Regional Weather Roundup
Issued by NWS

Home | Current Version | Previous Version | Text Only | Print | Product List | Glossary Off
Versions: 1 2 3 4 5 6 7 8 9 10 11 12 13 14 15 16 17 18 19 20 21 22 23 24 25 26 27 28 29 30 31 32 33 34 35 36 37 38 39 40 41 42 43 44 45 46 47 48 49 50

000
ASUS43 KFSD 172010
RWRSD

WEATHER ROUNDUP FOR SOUTH DAKOTA
NATIONAL WEATHER SERVICE SIOUX FALLS SD
200 PM CST SUN DEC 17 2017

NOTE: "FAIR" INDICATES FEW OR NO CLOUDS BELOW 12,000 FEET WITH NO
SIGNIFICANT WEATHER AND/OR OBSTRUCTIONS TO VISIBILITY.


SDZ001>005-009-010-012>017-172100-
NORTHWEST AND NORTH CENTRAL SOUTH DAKOTA

CITY           SKY/WX    TMP DP  RH WIND       PRES   REMARKS
BUFFALO          N/A     40  24  53 SW15      29.76F
FAITH            N/A     40  22  48 S15       29.85F
MOBRIDGE       SUNNY     42  24  49 S9        29.87F
$$

SDZ012>016-024>037-041>051-057-063-072>074-172100-
SOUTHWEST AND SOUTH CENTRAL SOUTH DAKOTA

CITY           SKY/WX    TMP DP  RH WIND       PRES   REMARKS
RAPID CTY ARPT SUNNY     42  27  55 S14       29.83F
PIERRE         CLOUDY    39  31  72 S5        29.92F
CUSTER         MOSUNNY   27  20  75 W17G28    29.79F WCI  14
ELLSWORTH AFB  SUNNY     42  27  55 S12       29.82F
PHILIP         CLOUDY    40  30  67 S14       29.90F
PINE RIDGE     MOSUNNY   40  29  64 SW10      29.88F
SPEARFISH      FAIR      37  25  60 W12       29.82F
WINNER         CLOUDY    42  30  62 SW5       29.95F
$$

SDZ004>011-016>023-039-040-172100-
NORTHEAST SOUTH DAKOTA

CITY           SKY/WX    TMP DP  RH WIND       PRES   REMARKS
ABERDEEN       CLOUDY    38  29  70 SW7       29.95F
WATERTOWN      CLOUDY    36  33  89 W7        29.94F
BROOKINGS      CLOUDY    36  28  73 CALM      29.95
SISSETON         N/A     40  32  73 NW5       29.94F
$$

SDZ017-020-022-023-036>040-048>070-172100-
SOUTHEAST SOUTH DAKOTA

CITY           SKY/WX    TMP DP  RH WIND       PRES   REMARKS
SIOUX FALLS    CLOUDY    38  29  70 NE5       29.97F
HURON          PTSUNNY   41  33  73 MISG      29.96F
CHAMBERLAIN    CLOUDY    42  34  73 CALM      29.96F
MITCHELL       CLOUDY    40  32  73 W5        29.98F
YANKTON        SUNNY     39  27  62 N3        29.99F
$$

ABBREVIATIONS USED IN REMARKS
   TC - TEMPERATURE IN CELSIUS
  WCI - WIND CHILL INDEX
   HX - HEAT INDEX
  VSB - VISIBILITY





USA.gov is the U.S. government's official web portal to all federal, state and local government web resources and services.